THORAD AGENA D DEB

Satellite information

Favourite Embed

Satellite Type and Status

DEBRISIN ORBIT

Key statistics

Satellite THORAD AGENA D DEB at a glance.

Uptime

20179

Days in orbit

Revolutions

≈ 13.8

Per day

Orbit

SSO

Sun Synchronous Orbit

Inclination

100.2

Latest

Satellite identification and parameters

Extended collection of information and parameters for THORAD AGENA D DEB.

Object identification

Identified? True

Debris? True

Object name: THORAD AGENA D DEB

International designator: 1970-025PL

Object number (NORAD): 18418

Object ID (CCSDS): 18418

Country: UNITED STATES OF AMERICA (US)

Current information (Y/N): Y

RCS size: SMALL

Orbital parameters

Period: 104.4 minutes

Inclination: 100.1719 deg

SMA: 7344.481 km

Apoapsis: 969.089 km

Periapsis: 963.602 km

RAAN: 328.305 deg

Eccentricy: 0.0003735

Argument of periapsis: 125.4886 deg

Mean anomaly: 263.6926 deg

Mean motion: 13.79307605 rev/day

Mean motion (dot): 0.00001094 rev/day2

B* drag term: 0.0011152 1/REarth

Two-line elements (TLE)

Creation date: July 5, 2025, 5:45 p.m.

Reference frame: TEME

Reference center: EARTH

Epoch: July 5, 2025, 8:34 a.m. UTC

TLE line 0: 0 THORAD AGENA D DEB

TLE line 1: 1 18418U 70025PL 25186.35694465 .00001094 00000-0 11152-2 0 9996

TLE line 2: 2 18418 100.1719 328.3050 0003735 125.4886 263.6926 13.79307605742813

Live tracking on map

Real-time ground track for satellite THORAD AGENA D DEB.

In-orbit conjunctions

A list of the most updated potential collisions computed for object THORAD AGENA D DEB.

Target Orbit TCA Probability of collision Miss distance Type
COSMOS 1181 LEO 2024-11-22 15:26:17 0.0006955278 184.0 (m) PAYLOAD
COSMOS 729 LEO 2024-09-28 12:42:25 0.0002636007 190.0 (m) PAYLOAD

Associated space launch

Meteorological research and development satellite

THORAD AGENA D DEB was lifted into orbit during the mission ‘Thorad SLV-2G Agena D | Nimbus 4’, on board a Thorad SLV-2G Agena D space rocket.

The launch took place on April 8, 1970, 8:17 a.m. from Space Launch Complex 2E.

For more information about the launch, click the button.

Launch to space Thorad SLV-2G Agena D | Nimbus 4
Thorad SLV-2G Agena D | Nimbus 4

Agency: N/A

Status: Launch Successful

Launch date: April 8, 1970, 8:17 a.m. UTC

Rocket: Thorad SLV-2G Agena D

Launch pad: Space Launch Complex 2E

Location: Vandenberg SFB, CA, USA

...

Latest news about this satellite

There are no fresh news available about this satellite. Check back as we update our databases every day.


Newsletter sign-up

Weekly statistics, charts and insights to help you stay on top of the space industry.